When you browse on this site, cookies collect data to enhance your experience and personalize the content and advertising you see.
Visit our Privacy Policy to learn more. By continuing to use the site, you agree to this use of cookies and data.
  • In Österreich
  • Länderverzeichnis
  • Für 7 Tage
  • Wassertemperatur
  • Satellitenkarten
  • Wetterkarte
  • News
  • Widgets
  • user-avatar
    Anmelden

    Stündliche Wetter Polco

    Heute, 18 Februar, Montag

    Zeit Temperatur Niederschläge Wind Luftdruck Luftfeuchtigkeit
    00:00 -7°C° 0.1 mm 7 m/S 737 mmHg 78%
    01:00 -7°C° 0.1 mm 7 m/S 738 mmHg 78%
    02:00 -7°C° 0.1 mm 7 m/S 739 mmHg 78%
    03:00 -8°C° 0 mm 7 m/S 740 mmHg 79%
    04:00 -9°C° 0 mm 7 m/S 741 mmHg 79%
    05:00 -9°C° 0 mm 6 m/S 742 mmHg 80%
    06:00 -10°C° 0 mm 6 m/S 743 mmHg 80%
    07:00 -10°C° 0 mm 6 m/S 744 mmHg 81%
    08:00 -11°C° 0 mm 6 m/S 745 mmHg 82%
    09:00 -10°C° 0 mm 5 m/S 746 mmHg 82%
    10:00 -10°C° 0 mm 5 m/S 746 mmHg 81%
    11:00 -10°C° 0 mm 5 m/S 747 mmHg 81%
    12:00 -10°C° 0 mm 5 m/S 747 mmHg 81%
    13:00 -10°C° 0 mm 5 m/S 748 mmHg 80%
    14:00 -10°C° 0 mm 5 m/S 748 mmHg 80%
    15:00 -10°C° 0 mm 4 m/S 748 mmHg 82%
    16:00 -10°C° 0 mm 3 m/S 749 mmHg 85%
    17:00 -9°C° 0 mm 2 m/S 749 mmHg 88%
    18:00 -10°C° 0 mm 2 m/S 749 mmHg 89%
    19:00 -10°C° 0 mm 1 m/S 749 mmHg 91%
    20:00 -11°C° 0 mm 1 m/S 750 mmHg 92%
    21:00 -11°C° 0 mm 1 m/S 750 mmHg 91%
    22:00 -10°C° 0 mm 1 m/S 749 mmHg 91%
    23:00 -10°C° 0 mm 1 m/S 749 mmHg 90%

    Morgen, 19 Februar, Dienstag

    Zeit Temperatur Niederschläge Wind Luftdruck Luftfeuchtigkeit
    00:00 -12°C° 0 mm 2 m/S 749 mmHg 89%
    01:00 -13°C° 0 mm 3 m/S 749 mmHg 88%
    02:00 -13°C° 0 mm 3 m/S 748 mmHg 88%
    03:00 -11°C° 0 mm 4 m/S 747 mmHg 84%
    04:00 -11°C° 0 mm 5 m/S 747 mmHg 81%
    05:00 -10°C° 0 mm 6 m/S 746 mmHg 78%
    06:00 -10°C° 0 mm 6 m/S 745 mmHg 78%
    07:00 -10°C° 0 mm 6 m/S 745 mmHg 79%
    08:00 -10°C° 0 mm 6 m/S 744 mmHg 79%
    09:00 -9°C° 0 mm 6 m/S 744 mmHg 79%
    10:00 -6°C° 0 mm 5 m/S 743 mmHg 78%
    11:00 -5°C° 0 mm 5 m/S 743 mmHg 78%
    12:00 -4°C° 0 mm 5 m/S 742 mmHg 80%
    13:00 -4°C° 0 mm 5 m/S 742 mmHg 82%
    14:00 -2°C° 0 mm 4 m/S 741 mmHg 84%
    15:00 -2°C° 0 mm 4 m/S 741 mmHg 85%
    16:00 -3°C° 0 mm 4 m/S 741 mmHg 86%
    17:00 -2°C° 0 mm 3 m/S 740 mmHg 88%
    18:00 -3°C° 0 mm 4 m/S 740 mmHg 87%
    19:00 -4°C° 0 mm 4 m/S 739 mmHg 86%
    20:00 -5°C° 0 mm 4 m/S 739 mmHg 86%
    21:00 -5°C° 0 mm 4 m/S 738 mmHg 86%
    22:00 -6°C° 0 mm 5 m/S 737 mmHg 87%
    23:00 -6°C° 0 mm 5 m/S 737 mmHg 88%

    übermorgen, 20 Februar, Mittwoch

    Zeit Temperatur Niederschläge Wind Luftdruck Luftfeuchtigkeit
    00:00 -5°C° 0 mm 5 m/S 736 mmHg 88%
    01:00 -5°C° 0 mm 5 m/S 736 mmHg 89%
    02:00 -4°C° 0 mm 5 m/S 735 mmHg 89%
    03:00 -4°C° 0.1 mm 5 m/S 735 mmHg 89%
    04:00 -4°C° 0.1 mm 5 m/S 734 mmHg 89%
    05:00 -2°C° 0.1 mm 5 m/S 733 mmHg 89%
    06:00 -2°C° 0.1 mm 5 m/S 733 mmHg 89%
    07:00 -2°C° 0.1 mm 5 m/S 732 mmHg 89%
    08:00 -1°C° 0.1 mm 5 m/S 732 mmHg 90%
    09:00 -2°C° 0.2 mm 6 m/S 732 mmHg 91%
    10:00 -2°C° 0.2 mm 6 m/S 731 mmHg 92%
    11:00 -1°C° 0.2 mm 6 m/S 731 mmHg 93%
    12:00 0°C° 0 mm 5 m/S 731 mmHg 93%
    13:00 0°C° 0 mm 5 m/S 731 mmHg 92%
    14:00 0°C° 0 mm 4 m/S 731 mmHg 92%
    15:00 0°C° 0.1 mm 5 m/S 731 mmHg 91%
    16:00 0°C° 0.1 mm 5 m/S 731 mmHg 89%
    17:00 -1°C° 0.1 mm 5 m/S 731 mmHg 88%
    18:00 -1°C° 0.1 mm 5 m/S 730 mmHg 88%
    19:00 -1°C° 0.1 mm 5 m/S 730 mmHg 88%
    20:00 -1°C° 0.1 mm 5 m/S 730 mmHg 88%
    21:00 -1°C° 0.3 mm 5 m/S 730 mmHg 87%
    22:00 -2°C° 0.3 mm 4 m/S 730 mmHg 87%
    23:00 -2°C° 0.3 mm 4 m/S 730 mmHg 86%

    21 Februar, Donnerstag

    Zeit Temperatur Niederschläge Wind Luftdruck Luftfeuchtigkeit
    00:00 -4°C° 0 mm 4 m/S 730 mmHg 87%
    01:00 -5°C° 0 mm 3 m/S 730 mmHg 89%
    02:00 -6°C° 0 mm 3 m/S 730 mmHg 90%
    03:00 -6°C° 0 mm 3 m/S 730 mmHg 91%
    04:00 -6°C° 0 mm 2 m/S 730 mmHg 92%
    05:00 -6°C° 0 mm 2 m/S 730 mmHg 94%
    06:00 -6°C° 0.1 mm 2 m/S 730 mmHg 93%
    07:00 -5°C° 0.1 mm 2 m/S 731 mmHg 93%
    08:00 -5°C° 0.1 mm 2 m/S 731 mmHg 93%
    09:00 -4°C° 0 mm 2 m/S 731 mmHg 90%
    10:00 -4°C° 0 mm 2 m/S 732 mmHg 88%
    11:00 -4°C° 0 mm 2 m/S 732 mmHg 85%
    12:00 -5°C° 0.2 mm 4 m/S 733 mmHg 86%
    13:00 -6°C° 0.2 mm 5 m/S 734 mmHg 87%
    14:00 -6°C° 0.2 mm 6 m/S 735 mmHg 89%
    15:00 -8°C° 0.2 mm 6 m/S 736 mmHg 87%
    16:00 -9°C° 0.2 mm 7 m/S 737 mmHg 86%
    17:00 -11°C° 0.2 mm 7 m/S 738 mmHg 85%
    18:00 -11°C° 0.1 mm 7 m/S 739 mmHg 84%
    19:00 -12°C° 0.1 mm 7 m/S 740 mmHg 84%
    20:00 -12°C° 0.1 mm 7 m/S 740 mmHg 83%
    21:00 -13°C° 0.1 mm 7 m/S 741 mmHg 83%
    22:00 -13°C° 0.1 mm 7 m/S 742 mmHg 82%
    23:00 -14°C° 0.1 mm 7 m/S 743 mmHg 82%

    22 Februar, Freitag

    Zeit Temperatur Niederschläge Wind Luftdruck Luftfeuchtigkeit
    00:00 -14°C° 0.1 mm 7 m/S 743 mmHg 82%
    01:00 -15°C° 0.1 mm 7 m/S 744 mmHg 81%
    02:00 -15°C° 0.1 mm 7 m/S 745 mmHg 81%
    03:00 -17°C° 0 mm 7 m/S 746 mmHg 78%
    04:00 -17°C° 0 mm 7 m/S 747 mmHg 76%
    05:00 -18°C° 0 mm 7 m/S 748 mmHg 73%
    06:00 -18°C° 0 mm 7 m/S 749 mmHg 72%
    07:00 -17°C° 0 mm 7 m/S 750 mmHg 71%
    08:00 -17°C° 0 mm 7 m/S 751 mmHg 69%
    09:00 -15°C° 0 mm 6 m/S 751 mmHg 70%
    10:00 -14°C° 0 mm 6 m/S 752 mmHg 71%
    11:00 -12°C° 0 mm 6 m/S 752 mmHg 72%
    12:00 -12°C° 0 mm 6 m/S 753 mmHg 72%
    13:00 -11°C° 0 mm 5 m/S 753 mmHg 73%
    14:00 -11°C° 0 mm 5 m/S 753 mmHg 73%
    15:00 -11°C° 0 mm 5 m/S 754 mmHg 76%
    16:00 -11°C° 0 mm 5 m/S 754 mmHg 78%
    17:00 -11°C° 0 mm 4 m/S 755 mmHg 81%
    18:00 -11°C° 0 mm 4 m/S 755 mmHg 83%
    19:00 -11°C° 0 mm 4 m/S 756 mmHg 86%
    20:00 -10°C° 0 mm 3 m/S 756 mmHg 88%
    21:00 -10°C° 0 mm 3 m/S 756 mmHg 89%
    22:00 -10°C° 0 mm 3 m/S 756 mmHg 90%
    23:00 -9°C° 0 mm 2 m/S 757 mmHg 92%

    23 Februar, Samstag

    Zeit Temperatur Niederschläge Wind Luftdruck Luftfeuchtigkeit
    00:00 -10°C° 0 mm 2 m/S 756 mmHg 93%
    01:00 -10°C° 0 mm 2 m/S 756 mmHg 94%
    02:00 -10°C° 0 mm 2 m/S 756 mmHg 95%
    03:00 -12°C° 0 mm 2 m/S 756 mmHg 95%
    04:00 -12°C° 0 mm 2 m/S 755 mmHg 95%
    05:00 -13°C° 0 mm 2 m/S 755 mmHg 96%
    06:00 -12°C° 0 mm 2 m/S 755 mmHg 94%
    07:00 -12°C° 0 mm 2 m/S 754 mmHg 93%
    08:00 -12°C° 0 mm 2 m/S 753 mmHg 92%
    09:00 -12°C° 0 mm 3 m/S 753 mmHg 90%
    10:00 -10°C° 0 mm 3 m/S 752 mmHg 88%
    11:00 -9°C° 0 mm 3 m/S 752 mmHg 86%
    12:00 -9°C° 0.1 mm 3 m/S 751 mmHg 87%
    13:00 -9°C° 0.1 mm 4 m/S 751 mmHg 88%
    14:00 -8°C° 0.1 mm 4 m/S 750 mmHg 89%
    15:00 -7°C° 0.1 mm 3 m/S 750 mmHg 90%
    16:00 -7°C° 0.1 mm 3 m/S 750 mmHg 91%
    17:00 -7°C° 0.1 mm 3 m/S 749 mmHg 92%
    18:00 -7°C° 0 mm 3 m/S 749 mmHg 93%
    19:00 -6°C° 0 mm 2 m/S 749 mmHg 94%
    20:00 -7°C° 0 mm 2 m/S 749 mmHg 95%
    21:00 -6°C° 0.1 mm 2 m/S 749 mmHg 96%
    22:00 -6°C° 0.1 mm 2 m/S 749 mmHg 96%
    23:00 -5°C° 0.1 mm 2 m/S 749 mmHg 96%
    Mehr zeigen